Location: Northcutt
(34.7304°N, 84.4305°W)
Time: 03:54:39
(UTC+00:00)

Vanguard 2 - Pass Details

Date: 07 October 2022
Orbit: 553 x 2933 km, 32.9° (Epoch: 04 December)

Event Time Altitude Azimuth Distance (km) Brightness Sun altitude
Rises 15:49:58 0° 221° (SW) 3,564 11.1 43.8°
Reaches altitude 10° 15:52:17 10° 213° (SSW) 2,855 10.8 44.0°
Maximum altitude 15:58:52 40° 146° (SE) 2,005 12.8 44.7°
Drops below altitude 10° 16:09:25 10° 83° (E) 4,560 11.8 45.8°
Sets 16:14:09 0° 77° (ENE) 5,942 12.2 46.2°
